Location: Arleux
(50.3632°N, 2.8721°E)
Time: 06:48:26
(UTC+00:00)

NOSS 3-2 (C) - Pass Details

Date: 15 December 2019
Orbit: 816 x 1396 km, 63.4° (Epoch: 19 January)

Event Time Altitude Azimuth Distance (km) Brightness Sun altitude
Rises 06:30:49 0° 218° (SW) 3,411 6.2 -10.6°
Reaches altitude 10° 06:33:10 10° 217° (SW) 2,523 5.5 -10.2°
Maximum altitude 06:39:00 83° 131° (SE) 964 3.6 -9.4°
Drops below altitude 10° 06:45:44 10° 45° (NE) 2,887 6.2 -8.4°
Sets 06:48:34 0° 44° (NE) 3,936 6.9 -8.0°
